,,,PA_Meas_PMT16A,,PR_Meas_QMR101_102,,RH_Meas_QMH101,,SR_Meas_QMS101,,TA_Meas_QMH101,,GenWind,,GenWind,
date,time,status,PA,status,PR,status,RH,status,SR,status,TA,status,DirAvg,status,SpdAvg,
2008-08-05, 08:37:04,INVALID - VALUE NOT AVAILABLE,0,INVALID - VALUE NOT AVAILABLE,0,INVALID - VALUE NOT AVAILABLE,0,INVALID - VALUE NOT AVAILABLE,0,INVALID - VALUE NOT AVAILABLE,0,INVALID,360,INVALID,0,
2008-08-05, 08:38:04,VALID,1005.87,VALID,0,VALID,84.3449,VALID,212.59,VALID,27.248,VALID,175,VALID,0.216797,
2008-08-05, 08:39:04,VALID,1005.86,VALID,0,VALID,84.6729,VALID,188.556,VALID,27.328,VALID,214,VALID,0.470313,
2008-08-05, 08:40:04,VALID,1005.84,VALID,0,VALID,83.2082,VALID,158.688,VALID,27.3865,VALID,203,VALID,0.199219,
2008-08-05, 08:41:04,VALID,1005.88,VALID,0,VALID,84.1008,VALID,135.559,VALID,27.4449,VALID,198,VALID,0.301562,
2008-08-05, 08:42:04,VALID,1005.87,VALID,0,VALID,83.6507,VALID,123.19,VALID,27.4818,VALID,200,VALID,0.374219,
2008-08-05, 08:43:04,VALID,1005.9,VALID,0,VALID,83.5591,VALID,116.754,VALID,27.5034,VALID,199,VALID,0.247656,
2008-08-05, 08:44:04,VALID,1005.94,VALID,0,VALID,83.5744,VALID,116.955,VALID,27.5034,VALID,150,VALID,0.646094,
2008-08-05, 08:45:04,VALID,1005.9,VALID,0,VALID,83.0709,VALID,111.021,VALID,27.4644,VALID,184,VALID,0.74375,
2008-08-05, 08:46:04,VALID,1005.9,VALID,0,VALID,83.521,VALID,95.3337,VALID,27.3865,VALID,180,VALID,0.711719,
2008-08-05, 08:47:04,VALID,1005.84,VALID,0,VALID,83.7041,VALID,78.5397,VALID,27.369,VALID,168,VALID,0.820703,
2008-08-05, 08:48:04,VALID,1005.81,VALID,0,VALID,84.2076,VALID,66.0699,VALID,27.2695,VALID,192,VALID,0.969922,
2008-08-05, 08:49:04,VALID,1005.79,VALID,0,VALID,84.3144,VALID,58.3265,VALID,27.1916,VALID,200,VALID,0.983203,
2008-08-05, 08:50:04,VALID,1005.75,VALID,0,VALID,84.1237,VALID,51.991,VALID,27.0942,VALID,181,VALID,1.17891,
2008-08-05, 08:51:04,VALID,1005.76,VALID,0,VALID,85.0162,VALID,45.7561,VALID,27.0162,VALID,193,VALID,0.936328,
2008-08-05, 08:52:04,VALID,1005.76,VALID,0,VALID,85.7486,VALID,42.6387,VALID,26.9383,VALID,164,VALID,1.18203,
2008-08-05, 08:53:04,VALID,1005.76,VALID,0,VALID,86.2292,VALID,43.946,VALID,26.8798,VALID,195,VALID,1.05469,
2008-08-05, 08:54:04,VALID,1005.81,VALID,0,VALID,87.1828,VALID,47.7674,VALID,26.7804,VALID,192,VALID,0.858594,
2008-08-05, 08:55:04,VALID,1005.8,VALID,0,VALID,87.6406,VALID,57.7231,VALID,26.7045,VALID,187,VALID,1.37031,
2008-08-05, 08:56:04,VALID,1005.82,VALID,0,VALID,88.5332,VALID,66.9749,VALID,26.5855,VALID,216,VALID,0.637109,
2008-08-05, 08:57:04,VALID,1005.84,VALID,0,VALID,88.968,VALID,69.9918,VALID,26.5291,VALID,193,VALID,0.221094,
2008-08-05, 08:58:04,VALID,1005.85,VALID,0,VALID,88.8841,VALID,77.8357,VALID,26.4512,VALID,198,VALID,1.09141,
2008-08-05, 08:59:04,VALID,1005.81,VALID,0,VALID,88.6476,VALID,76.3273,VALID,26.3148,VALID,324,VALID,0.234766,
2008-08-05, 09:00:04,VALID,1005.85,VALID,0,VALID,89.2198,VALID,65.4665,VALID,26.2759,VALID,197,VALID,0.585547,
2008-08-05, 09:01:04,VALID,1005.86,VALID,0,VALID,90.2115,VALID,58.9299,VALID,26.2759,VALID,211,VALID,0.141797,
2008-08-05, 09:02:04,VALID,1005.86,VALID,0.5,VALID,90.5624,VALID,56.3153,VALID,26.2544,VALID,225,VALID,0.363672,
2008-08-05, 09:03:04,VALID,1005.85,VALID,0,VALID,90.593,VALID,55.2091,VALID,26.2564,VALID,231,VALID,0.254297,
2008-08-05, 09:04:04,VALID,1005.91,VALID,0,VALID,90.2344,VALID,68.8856,VALID,26.1979,VALID,209,VALID,0.226172,
2008-08-05, 09:05:04,VALID,1005.93,VALID,0,VALID,90.242,VALID,101.569,VALID,26.159,VALID,206,VALID,0.0542969,
2008-08-05, 09:06:04,VALID,1005.93,VALID,0,VALID,90.9515,VALID,128.017,VALID,26.2174,VALID,206,VALID,0,
2008-08-05, 09:07:04,VALID,1005.92,VALID,0,VALID,90.3336,VALID,159.091,VALID,26.2154,VALID,269,VALID,0.453516,
2008-08-05, 09:08:04,VALID,1005.93,VALID,0,VALID,90.3107,VALID,182.924,VALID,26.2174,VALID,338,VALID,0.204688,
2008-08-05, 09:09:04,VALID,1005.92,VALID,0,VALID,90.2725,VALID,210.679,VALID,26.2759,VALID,273,VALID,0.220313,
2008-08-05, 09:10:04,VALID,1005.96,VALID,0,VALID,90.2115,VALID,246.48,VALID,26.3148,VALID,235,VALID,0.0785156,
2008-08-05, 09:11:04,VALID,1005.95,VALID,0,VALID,90.1352,VALID,296.761,VALID,26.3713,VALID,333,VALID,0.551953,
2008-08-05, 09:12:04,VALID,1005.97,VALID,0,VALID,89.7461,VALID,445.192,VALID,26.4492,VALID,26,VALID,0.398047,
2008-08-05, 09:13:04,VALID,1005.98,VALID,0,VALID,89.7004,VALID,516.592,VALID,26.5466,VALID,26,VALID,0.01875,
2008-08-05, 09:14:04,VALID,1005.96,VALID,0,VALID,88.5255,VALID,356.496,VALID,26.685,VALID,26,VALID,0.196875,
2008-08-05, 09:15:04,VALID,1005.94,VALID,0,VALID,89.2121,VALID,274.537,VALID,26.8214,VALID,349,VALID,0.397656,
2008-08-05, 09:16:04,VALID,1005.92,VALID,0,VALID,88.289,VALID,257.743,VALID,26.9188,VALID,291,VALID,0.900781,
2008-08-05, 09:17:04,VALID,1005.95,VALID,0,VALID,89.0977,VALID,321.801,VALID,26.9578,VALID,249,VALID,0.704297,
2008-08-05, 09:18:04,VALID,1005.96,VALID,0,VALID,88.8765,VALID,299.678,VALID,26.9947,VALID,228,VALID,0.248047,
2008-08-05, 09:19:04,VALID,1005.98,VALID,0,VALID,88.7849,VALID,296.56,VALID,27.0162,VALID,247,VALID,0.651563,
2008-08-05, 09:20:04,VALID,1005.96,VALID,0,VALID,89.0061,VALID,390.687,VALID,27.0162,VALID,338,VALID,0.319531,
2008-08-05, 09:21:04,VALID,1005.94,VALID,0,VALID,88.7391,VALID,467.115,VALID,27.0747,VALID,337,VALID,0.129297,
2008-08-05, 09:22:04,VALID,1005.92,VALID,0,VALID,88.0907,VALID,396.218,VALID,27.1331,VALID,280,VALID,0.473047,
2008-08-05, 09:23:04,VALID,1005.9,VALID,0,VALID,85.947,VALID,419.549,VALID,27.2111,VALID,237,VALID,0.453516,
2008-08-05, 09:24:04,VALID,1005.88,VALID,0,VALID,87.9152,VALID,388.676,VALID,27.25,VALID,236,VALID,0.298047,
2008-08-05, 09:25:04,VALID,1005.88,VALID,0,VALID,84.9934,VALID,385.257,VALID,27.2716,VALID,233,VALID,0.669922,
2008-08-05, 09:26:04,VALID,1005.87,VALID,0,VALID,85.0544,VALID,334.774,VALID,27.2521,VALID,245,VALID,0.347656,
2008-08-05, 09:27:04,VALID,1005.82,VALID,0,VALID,85.7944,VALID,299.175,VALID,27.2306,VALID,190,VALID,0.388672,
2008-08-05, 09:28:04,VALID,1005.84,VALID,0,VALID,84.7721,VALID,286.403,VALID,27.1136,VALID,189,VALID,0.650391,
2008-08-05, 09:29:04,VALID,1005.85,VALID,0,VALID,85.4587,VALID,383.044,VALID,27.0747,VALID,184,VALID,0.06875,
2008-08-05, 09:30:04,VALID,1005.87,VALID,0,VALID,86.1301,VALID,358.406,VALID,27.0747,VALID,145,VALID,0.396484,
2008-08-05, 09:31:04,VALID,1005.86,VALID,0,VALID,85.0849,VALID,519.408,VALID,27.0767,VALID,170,VALID,1.23789,
2008-08-05, 09:32:04,VALID,1005.83,VALID,0,VALID,86.7861,VALID,643.301,VALID,27.0767,VALID,190,VALID,1.16562,
2008-08-05, 09:33:04,VALID,1005.85,VALID,0,VALID,85.1993,VALID,572.505,VALID,27.1136,VALID,236,VALID,0.766016,
2008-08-05, 09:34:04,VALID,1005.85,VALID,0,VALID,85.5426,VALID,438.153,VALID,27.2869,VALID,283,VALID,0.708594,
2008-08-05, 09:35:04,VALID,1005.86,VALID,0,VALID,86.1301,VALID,423.772,VALID,27.4039,VALID,299,VALID,0.310547,
2008-08-05, 09:36:04,VALID,1005.84,VALID,0,VALID,84.9018,VALID,419.247,VALID,27.6008,VALID,292,VALID,0.624219,
2008-08-05, 09:37:04,VALID,1005.82,VALID,0,VALID,86.2369,VALID,410.397,VALID,27.8542,VALID,157,VALID,0.273438,
2008-08-05, 09:38:04,VALID,1005.78,VALID,0,VALID,84.4212,VALID,291.834,VALID,27.9711,VALID,316,VALID,0.680078,
2008-08-05, 09:39:04,VALID,1005.77,VALID,0,VALID,80.6602,VALID,247.485,VALID,28.0296,VALID,296,VALID,1.50312,
2008-08-05, 09:40:04,VALID,1005.75,VALID,0,VALID,81.774,VALID,248.692,VALID,27.8911,VALID,276,VALID,0.986328,
2008-08-05, 09:41:04,VALID,1005.74,VALID,0,VALID,84.055,VALID,271.52,VALID,27.8911,VALID,267,VALID,0.327344,
2008-08-05, 09:42:04,VALID,1005.72,VALID,0,VALID,80.3016,VALID,234.513,VALID,27.8737,VALID,187,VALID,0.656641,
2008-08-05, 09:43:04,VALID,1005.71,VALID,0,VALID,80.3779,VALID,210.277,VALID,27.7567,VALID,128,VALID,0.413672,
2008-08-05, 09:44:04,VALID,1005.71,VALID,0,VALID,81.3391,VALID,195.695,VALID,27.6788,VALID,178,VALID,0.951563,
2008-08-05, 09:45:04,VALID,1005.7,VALID,0,VALID,82.781,VALID,193.383,VALID,27.6203,VALID,196,VALID,1.55352,
2008-08-05, 09:46:04,VALID,1005.7,VALID,0,VALID,83.6812,VALID,198.21,VALID,27.5034,VALID,195,VALID,1.09102,
2008-08-05, 09:47:04,VALID,1005.67,VALID,0,VALID,84.6348,VALID,191.975,VALID,27.4254,VALID,200,VALID,0.166406,
2008-08-05, 09:48:04,VALID,1005.71,VALID,0,VALID,84.6882,VALID,174.678,VALID,27.367,VALID,134,VALID,0.905859,
2008-08-05, 09:49:04,VALID,1005.72,VALID,0,VALID,83.6964,VALID,157.381,VALID,27.25,VALID,145,VALID,1.14023,
2008-08-05, 09:50:04,VALID,1005.75,VALID,0,VALID,84.5509,VALID,145.414,VALID,27.1916,VALID,136,VALID,1.01563,
2008-08-05, 09:51:04,VALID,1005.78,VALID,0,VALID,85.0315,VALID,143.202,VALID,27.1526,VALID,127,VALID,0.727344,
2008-08-05, 09:52:04,VALID,1005.79,VALID,0,VALID,85.68,VALID,147.124,VALID,27.0921,VALID,158,VALID,1.27266,
2008-08-05, 09:53:04,VALID,1005.88,VALID,0,VALID,85.6952,VALID,149.034,VALID,26.9598,VALID,143,VALID,1.82266,
2008-08-05, 09:54:04,VALID,1005.87,VALID,0.5,VALID,87.488,VALID,149.939,VALID,26.7239,VALID,183,VALID,0.417578,
2008-08-05, 09:55:04,VALID,1005.84,VALID,0.5,VALID,88.0449,VALID,147.425,VALID,26.4901,VALID,75,VALID,0.871875,
2008-08-05, 09:56:04,VALID,1005.83,VALID,0,VALID,88.9299,VALID,151.247,VALID,26.3343,VALID,169,VALID,0.924219,
2008-08-05, 09:57:04,VALID,1005.83,VALID,0,VALID,89.235,VALID,161.001,VALID,26.2564,VALID,123,VALID,1.31289,
2008-08-05, 09:58:04,VALID,1005.79,VALID,0,VALID,89.235,VALID,178.298,VALID,26.1979,VALID,147,VALID,1.54297,
2008-08-05, 09:59:04,VALID,1005.76,VALID,0,VALID,89.9369,VALID,198.511,VALID,26.1999,VALID,111,VALID,1.13945,
2008-08-05, 10:00:04,VALID,1005.76,VALID,0,VALID,89.6012,VALID,216.512,VALID,26.157,VALID,120,VALID,1.55547,
2008-08-05, 10:01:04,VALID,1005.77,VALID,0,VALID,89.502,VALID,235.921,VALID,26.159,VALID,111,VALID,1.05938,
2008-08-05, 10:02:04,VALID,1005.74,VALID,0,VALID,90.5777,VALID,257.341,VALID,26.2369,VALID,92,VALID,0.583203,
2008-08-05, 10:03:04,VALID,1005.69,VALID,0,VALID,90.6158,VALID,316.874,VALID,26.2739,VALID,13,VALID,1.13203,
2008-08-05, 10:04:04,VALID,1005.6,VALID,0.5,VALID,90.9591,VALID,297.063,VALID,26.3343,VALID,3,VALID,1.00469,
2008-08-05, 10:05:04,VALID,1005.6,VALID,0,VALID,90.7455,VALID,268,VALID,26.3343,VALID,12,VALID,0.696875,
2008-08-05, 10:06:04,VALID,1005.58,VALID,0,VALID,91.2414,VALID,272.928,VALID,26.3538,VALID,8,VALID,0.344141,
2008-08-05, 10:07:04,VALID,1005.56,VALID,0,VALID,91.7983,VALID,417.236,VALID,26.4122,VALID,8,VALID,0.212109,
2008-08-05, 10:08:04,VALID,1005.54,VALID,0,VALID,91.6152,VALID,371.58,VALID,26.4102,VALID,46,VALID,0.153516,
2008-08-05, 10:09:04,VALID,1005.53,VALID,0,VALID,90.9973,VALID,369.871,VALID,26.4122,VALID,53,VALID,0.505469,
2008-08-05, 10:10:04,VALID,1005.52,VALID,0,VALID,91.3253,VALID,295.555,VALID,26.4317,VALID,81,VALID,0.705469,
2008-08-05, 10:11:04,VALID,1005.52,VALID,0,VALID,91.9662,VALID,265.486,VALID,26.5076,VALID,108,VALID,0.552344,
2008-08-05, 10:12:04,VALID,1005.56,VALID,0,VALID,91.0888,VALID,243.262,VALID,26.4687,VALID,153,VALID,1.72109,
2008-08-05, 10:13:04,VALID,1005.53,VALID,0,VALID,90.0666,VALID,231.094,VALID,26.5486,VALID,170,VALID,2.29063,
2008-08-05, 10:14:04,VALID,1005.58,VALID,0,VALID,89.8758,VALID,197.003,VALID,26.5271,VALID,122,VALID,2.32813,
2008-08-05, 10:15:04,VALID,1005.61,VALID,0.5,VALID,89.2426,VALID,194.288,VALID,26.3907,VALID,151,VALID,3.2207,
2008-08-05, 10:16:04,VALID,1005.61,VALID,0.5,VALID,90.3565,VALID,249.094,VALID,26.2174,VALID,117,VALID,2.24141,
2008-08-05, 10:17:04,VALID,1005.53,VALID,1,VALID,90.7379,VALID,484.915,VALID,25.9642,VALID,111,VALID,1.3293,
2008-08-05, 10:18:04,VALID,1005.48,VALID,0.5,VALID,91.9128,VALID,384.15,VALID,25.7889,VALID,120,VALID,0.442578,
2008-08-05, 10:19:04,VALID,1005.49,VALID,0,VALID,92.4086,VALID,363.032,VALID,25.7304,VALID,96,VALID,0.958203,
2008-08-05, 10:20:04,VALID,1005.54,VALID,0,VALID,92.9579,VALID,366.652,VALID,25.6895,VALID,100,VALID,1.70859,
2008-08-05, 10:21:04,VALID,1005.51,VALID,0,VALID,92.9503,VALID,290.627,VALID,25.6525,VALID,126,VALID,1.27773,
2008-08-05, 10:22:04,VALID,1005.47,VALID,0,VALID,92.874,VALID,278.358,VALID,25.5727,VALID,133,VALID,0.996484,
2008-08-05, 10:23:04,VALID,1005.49,VALID,0,VALID,93.1791,VALID,285.297,VALID,25.5142,VALID,145,VALID,1.02305,
2008-08-05, 10:24:04,VALID,1005.49,VALID,0,VALID,93.2173,VALID,292.638,VALID,25.5142,VALID,133,VALID,1.4543,
2008-08-05, 10:25:04,VALID,1005.51,VALID,0,VALID,92.8511,VALID,325.924,VALID,25.4383,VALID,159,VALID,1.45039,
2008-08-05, 10:26:04,VALID,1005.5,VALID,0.5,VALID,92.9198,VALID,621.177,VALID,25.3974,VALID,146,VALID,1.31289,
2008-08-05, 10:27:04,VALID,1005.48,VALID,0.5,VALID,93.2402,VALID,574.617,VALID,25.3993,VALID,154,VALID,0.445703,
2008-08-05, 10:28:04,VALID,1005.4,VALID,0.5,VALID,92.195,VALID,426.387,VALID,25.3798,VALID,219,VALID,0.501172,
2008-08-05, 10:29:04,VALID,1005.41,VALID,0,VALID,92.9198,VALID,502.815,VALID,25.3798,VALID,219,VALID,1.34375,
2008-08-05, 10:30:04,VALID,1005.43,VALID,0,VALID,92.9655,VALID,1044.95,VALID,25.4383,VALID,164,VALID,1.89883,
2008-08-05, 10:31:04,VALID,1005.4,VALID,0,VALID,93.4233,VALID,434.935,VALID,25.4948,VALID,136,VALID,1.12578,
2008-08-05, 10:32:04,VALID,1005.39,VALID,0,VALID,92.8587,VALID,1053.1,VALID,25.5357,VALID,130,VALID,0.517578,
2008-08-05, 10:33:04,VALID,1005.42,VALID,0,VALID,92.5536,VALID,322.807,VALID,25.5551,VALID,122,VALID,1.34922,
2008-08-05, 10:34:04,VALID,1005.43,VALID,0,VALID,91.3024,VALID,261.665,VALID,25.3779,VALID,118,VALID,0.923437,
2008-08-05, 10:35:04,VALID,1005.41,VALID,0,VALID,91.6,VALID,228.077,VALID,25.4383,VALID,142,VALID,1.27031,
2008-08-05, 10:36:05,VALID,1005.41,VALID,0,VALID,92.5231,VALID,209.674,VALID,25.5142,VALID,141,VALID,1.16133,
2008-08-05, 10:37:05,VALID,1005.46,VALID,0,VALID,90.3488,VALID,190.466,VALID,25.3779,VALID,139,VALID,1.76016,
2008-08-05, 10:38:05,VALID,1005.49,VALID,0,VALID,90.9515,VALID,175.482,VALID,25.3974,VALID,132,VALID,1.77695,
2008-08-05, 10:39:05,VALID,1005.59,VALID,0,VALID,92.2942,VALID,170.454,VALID,25.4558,VALID,126,VALID,1.72305,
2008-08-05, 10:40:05,VALID,1005.68,VALID,0.5,VALID,91.8594,VALID,157.783,VALID,25.4772,VALID,103,VALID,1.97227,
2008-08-05, 10:41:05,VALID,1005.69,VALID,0.5,VALID,92.4849,VALID,150.744,VALID,25.4169,VALID,106,VALID,1.1082,
2008-08-05, 10:42:05,VALID,1005.6,VALID,1,VALID,88.7697,VALID,170.957,VALID,25.1248,VALID,115,VALID,2.95469,
2008-08-05, 10:43:05,VALID,1005.46,VALID,0.5,VALID,87.5567,VALID,190.165,VALID,24.5796,VALID,177,VALID,0.929688,
2008-08-05, 10:44:05,VALID,1005.43,VALID,0.5,VALID,90.6082,VALID,171.963,VALID,24.307,VALID,156,VALID,0.684375,
2008-08-05, 10:45:05,VALID,1005.52,VALID,0,VALID,92.4315,VALID,142.297,VALID,24.307,VALID,174,VALID,1.44961,
2008-08-05, 10:46:05,VALID,1005.6,VALID,0,VALID,93.0876,VALID,122.486,VALID,24.3478,VALID,163,VALID,1.61523,
2008-08-05, 10:47:05,VALID,1005.67,VALID,0,VALID,92.8053,VALID,113.837,VALID,24.3459,VALID,152,VALID,2.02187,
2008-08-05, 10:48:05,VALID,1005.7,VALID,0.5,VALID,92.8435,VALID,102.373,VALID,24.2875,VALID,168,VALID,1.91016,
2008-08-05, 10:49:05,VALID,1005.58,VALID,1,VALID,92.9121,VALID,118.061,VALID,24.2486,VALID,204,VALID,1.76563,
2008-08-05, 10:50:05,VALID,1005.49,VALID,0,VALID,93.3928,VALID,149.437,VALID,24.2291,VALID,171,VALID,1.03672,
2008-08-05, 10:51:05,VALID,1005.45,VALID,0,VALID,93.6826,VALID,195.595,VALID,24.2291,VALID,176,VALID,1.30078,
2008-08-05, 10:52:05,VALID,1005.43,VALID,0,VALID,93.881,VALID,311.846,VALID,24.2291,VALID,222,VALID,0.625,
2008-08-05, 10:53:05,VALID,1005.47,VALID,0,VALID,94.2014,VALID,967.818,VALID,24.3283,VALID,185,VALID,1.86484,
2008-08-05, 10:54:05,VALID,1005.47,VALID,0,VALID,94.6363,VALID,600.662,VALID,24.562,VALID,127,VALID,1.74023,
2008-08-05, 10:55:05,VALID,1005.5,VALID,0,VALID,93.7132,VALID,448.511,VALID,24.6222,VALID,127,VALID,1.99141,
2008-08-05, 10:56:05,VALID,1005.49,VALID,0,VALID,93.5072,VALID,318.785,VALID,24.6769,VALID,133,VALID,1.00586,
2008-08-05, 10:57:05,VALID,1005.49,VALID,0,VALID,94.4303,VALID,275.844,VALID,24.893,VALID,78,VALID,1.24648,
2008-08-05, 10:58:05,VALID,1005.53,VALID,0.5,VALID,94.2624,VALID,226.468,VALID,24.9319,VALID,101,VALID,2.13203,
2008-08-05, 10:59:05,VALID,1005.46,VALID,0,VALID,94.4379,VALID,243.463,VALID,25.0098,VALID,68,VALID,1.06797,
2008-08-05, 11:00:05,VALID,1005.41,VALID,0.5,VALID,93.9878,VALID,290.526,VALID,24.9319,VALID,120,VALID,0.865234,
2008-08-05, 11:01:05,VALID,1005.41,VALID,0,VALID,94.4761,VALID,400.944,VALID,24.9904,VALID,148,VALID,0.582422,
2008-08-05, 11:02:05,VALID,1005.39,VALID,0,VALID,94.354,VALID,842.818,VALID,24.9495,VALID,131,VALID,0.844531,
2008-08-05, 11:03:05,VALID,1005.39,VALID,0,VALID,94.5371,VALID,1331.25,VALID,25.0877,VALID,171,VALID,0.382813,
2008-08-05, 11:04:05,VALID,1005.36,VALID,0,VALID,94.888,VALID,804.202,VALID,25.2825,VALID,130,VALID,0.364844,
2008-08-05, 11:05:05,VALID,1005.33,VALID,0,VALID,93.9039,VALID,764.781,VALID,25.3019,VALID,22,VALID,0.298047,
2008-08-05, 11:06:05,VALID,1005.32,VALID,0,VALID,93.8963,VALID,1003.62,VALID,25.3798,VALID,9,VALID,0.142969,
2008-08-05, 11:07:05,VALID,1005.29,VALID,0,VALID,94.7507,VALID,761.865,VALID,25.633,VALID,10,VALID,0.235938,
2008-08-05, 11:08:05,VALID,1005.29,VALID,0,VALID,93.881,VALID,694.789,VALID,25.6506,VALID,181,VALID,0.823828,
2008-08-05, 11:09:05,VALID,1005.25,VALID,0,VALID,93.6826,VALID,758.043,VALID,25.7304,VALID,189,VALID,0.997656,
2008-08-05, 11:10:05,VALID,1005.22,VALID,0,VALID,94.1556,VALID,683.828,VALID,25.8668,VALID,189,VALID,0.238281,
2008-08-05, 11:11:05,VALID,1005.21,VALID,0,VALID,93.7208,VALID,1043.04,VALID,25.9836,VALID,228,VALID,0.6,
2008-08-05, 11:12:05,VALID,1005.19,VALID,0,VALID,93.6216,VALID,636.463,VALID,26.0616,VALID,197,VALID,1.12109,
2008-08-05, 11:13:05,VALID,1005.21,VALID,0,VALID,93.8123,VALID,348.451,VALID,26.1784,VALID,213,VALID,1.05703,
2008-08-05, 11:14:05,VALID,1005.15,VALID,0,VALID,92.3476,VALID,234.111,VALID,26.081,VALID,231,VALID,0.954297,
2008-08-05, 11:15:05,VALID,1005.12,VALID,0,VALID,93.3775,VALID,176.287,VALID,26.118,VALID,216,VALID,1.35352,
2008-08-05, 11:16:05,VALID,1005.13,VALID,0,VALID,93.3241,VALID,138.375,VALID,26.1005,VALID,179,VALID,1.57734,
2008-08-05, 11:17:05,VALID,1005.11,VALID,0,VALID,92.5154,VALID,123.089,VALID,26.0421,VALID,195,VALID,2.19688,
2008-08-05, 11:18:05,VALID,1005.14,VALID,0,VALID,91.7525,VALID,131.838,VALID,25.9077,VALID,177,VALID,2.48359,
2008-08-05, 11:19:05,VALID,1005.08,VALID,0,VALID,92.401,VALID,164.32,VALID,25.8278,VALID,185,VALID,2.07109,
2008-08-05, 11:20:05,VALID,1005.04,VALID,0,VALID,92.9426,VALID,276.95,VALID,25.8882,VALID,201,VALID,1.88906,
2008-08-05, 11:21:05,VALID,1005.02,VALID,0,VALID,93.1334,VALID,521.419,VALID,25.8278,VALID,172,VALID,1.78398,
2008-08-05, 11:22:05,VALID,1005.04,VALID,0,VALID,93.4843,VALID,644.709,VALID,25.9232,VALID,173,VALID,1.73555,
2008-08-05, 11:23:05,VALID,1005.04,VALID,0,VALID,92.5154,VALID,828.94,VALID,25.9427,VALID,140,VALID,1.8293,
2008-08-05, 11:24:05,VALID,1005.08,VALID,0,VALID,91.9204,VALID,422.163,VALID,25.9817,VALID,112,VALID,2.79297,
2008-08-05, 11:25:05,VALID,1005.11,VALID,0,VALID,88.7391,VALID,336.685,VALID,25.8259,VALID,137,VALID,3.55859,
2008-08-05, 11:26:05,VALID,1005.1,VALID,0,VALID,88.3729,VALID,317.075,VALID,25.7304,VALID,118,VALID,2.47187,
2008-08-05, 11:27:05,VALID,1005.14,VALID,0,VALID,89.3876,VALID,297.063,VALID,25.5921,VALID,105,VALID,2.22734,
2008-08-05, 11:28:05,VALID,1005.12,VALID,0.5,VALID,89.4868,VALID,303.197,VALID,25.3993,VALID,125,VALID,1.93789,
2008-08-05, 11:29:05,VALID,1005.14,VALID,0,VALID,89.8148,VALID,318.081,VALID,25.1637,VALID,108,VALID,1.62266,
2008-08-05, 11:30:05,VALID,1005.09,VALID,0.5,VALID,89.6241,VALID,364.239,VALID,24.9495,VALID,126,VALID,1.99688,
2008-08-05, 11:31:05,VALID,1005.13,VALID,0,VALID,90.6311,VALID,395.112,VALID,24.7937,VALID,120,VALID,1.76094,
2008-08-05, 11:32:05,VALID,1005.07,VALID,0,VALID,90.5777,VALID,450.522,VALID,24.638,VALID,141,VALID,1.63516,
2008-08-05, 11:33:05,VALID,1005.04,VALID,0,VALID,91.333,VALID,526.548,VALID,24.5972,VALID,163,VALID,0.869922,
2008-08-05, 11:34:05,VALID,1005.07,VALID,0,VALID,93.202,VALID,604.484,VALID,24.7548,VALID,137,VALID,1.21211,
2008-08-05, 11:35:05,VALID,1005.04,VALID,0.5,VALID,92.5841,VALID,511.463,VALID,24.7743,VALID,60,VALID,0.459375,
2008-08-05, 11:36:05,VALID,1005.05,VALID,0,VALID,91.1956,VALID,370.072,VALID,24.6788,VALID,63,VALID,0.848437,
2008-08-05, 11:37:05,VALID,1005.06,VALID,0,VALID,90.9057,VALID,338.998,VALID,24.5796,VALID,80,VALID,0.585547,
2008-08-05, 11:38:05,VALID,1005.03,VALID,0,VALID,91.8899,VALID,343.825,VALID,24.599,VALID,351,VALID,0.792188,
2008-08-05, 11:39:05,VALID,1005.03,VALID,0,VALID,91.6229,VALID,389.883,VALID,24.6185,VALID,350,VALID,0.708203,
2008-08-05, 11:40:05,VALID,1004.99,VALID,0,VALID,92.7443,VALID,529.967,VALID,24.7548,VALID,350,VALID,0.826563,
2008-08-05, 11:41:05,VALID,1005,VALID,0,VALID,93.5682,VALID,911.301,VALID,24.9885,VALID,356,VALID,0.341016,
2008-08-05, 11:42:05,VALID,1004.96,VALID,0,VALID,93.3928,VALID,515.586,VALID,25.2027,VALID,360,VALID,1.23828,
2008-08-05, 11:43:05,VALID,1004.98,VALID,0,VALID,91.3101,VALID,725.059,VALID,25.2007,VALID,352,VALID,1.36094,
2008-08-05, 11:44:05,VALID,1004.93,VALID,0,VALID,91.9433,VALID,467.316,VALID,25.3195,VALID,360,VALID,1.24688,
2008-08-05, 11:45:05,VALID,1004.92,VALID,0,VALID,90.9591,VALID,420.353,VALID,25.3974,VALID,355,VALID,1.34375,
2008-08-05, 11:46:05,VALID,1004.89,VALID,0,VALID,90.9973,VALID,407.179,VALID,25.4149,VALID,309,VALID,0.519922,
2008-08-05, 11:47:05,VALID,1004.88,VALID,0,VALID,90.8905,VALID,391.894,VALID,25.5123,VALID,279,VALID,0.889453,
2008-08-05, 11:48:05,VALID,1004.87,VALID,0,VALID,89.975,VALID,390.989,VALID,25.5142,VALID,298,VALID,0.753906,
2008-08-05, 11:49:05,VALID,1004.83,VALID,0,VALID,90.4099,VALID,376.407,VALID,25.6116,VALID,309,VALID,0.826953,
2008-08-05, 11:50:05,VALID,1004.8,VALID,0,VALID,91.7754,VALID,371.982,VALID,25.6895,VALID,12,VALID,0.396094,
2008-08-05, 11:51:05,VALID,1004.79,VALID,0,VALID,91.0659,VALID,462.087,VALID,25.7869,VALID,359,VALID,0.626562,
2008-08-05, 11:52:05,VALID,1004.82,VALID,0,VALID,90.1886,VALID,507.943,VALID,25.7674,VALID,27,VALID,0.543359,
2008-08-05, 11:53:05,VALID,1004.8,VALID,0,VALID,90.654,VALID,438.253,VALID,25.9057,VALID,34,VALID,0.867969,
2008-08-05, 11:54:05,VALID,1004.8,VALID,0,VALID,89.4944,VALID,646.318,VALID,25.8863,VALID,57,VALID,0.588281,
2008-08-05, 11:55:05,VALID,1004.76,VALID,0,VALID,91.2719,VALID,608.708,VALID,26.0616,VALID,6,VALID,0.428516,
2008-08-05, 11:56:05,VALID,1004.77,VALID,0,VALID,91.3253,VALID,1104.99,VALID,26.2369,VALID,5,VALID,0.675,
2008-08-05, 11:57:05,VALID,1004.75,VALID,0,VALID,89.3342,VALID,883.043,VALID,26.3733,VALID,357,VALID,1.04219,
2008-08-05, 11:58:05,VALID,1004.75,VALID,0,VALID,89.4257,VALID,1084.77,VALID,26.5116,VALID,358,VALID,1.60703,
2008-08-05, 11:59:05,VALID,1004.72,VALID,0,VALID,88.8231,VALID,761.965,VALID,26.6265,VALID,359,VALID,1.47539,
2008-08-05, 12:00:05,VALID,1004.73,VALID,0,VALID,88.3501,VALID,627.211,VALID,26.7824,VALID,351,VALID,1.29766,
2008-08-05, 12:01:05,VALID,1004.7,VALID,0,VALID,88.6934,VALID,769.105,VALID,26.8624,VALID,302,VALID,1.23008,
2008-08-05, 12:02:05,VALID,1004.69,VALID,0,VALID,88.64,VALID,999.696,VALID,26.9383,VALID,341,VALID,0.942969,
2008-08-05, 12:03:05,VALID,1004.68,VALID,0,VALID,87.2286,VALID,1186.94,VALID,27.0552,VALID,346,VALID,1.13125,
2008-08-05, 12:04:05,VALID,1004.64,VALID,0,VALID,86.8548,VALID,785.296,VALID,27.2521,VALID,343,VALID,0.935156,
2008-08-05, 12:05:05,VALID,1004.7,VALID,0,VALID,86.5039,VALID,699.616,VALID,27.3885,VALID,304,VALID,1.26641,
2008-08-05, 12:06:05,VALID,1004.67,VALID,0,VALID,84.4364,VALID,818.08,VALID,27.367,VALID,297,VALID,1.6375,
2008-08-05, 12:07:05,VALID,1004.67,VALID,0,VALID,83.1472,VALID,911.704,VALID,27.0336,VALID,289,VALID,2.49492,
2008-08-05, 12:08:05,VALID,1004.66,VALID,0,VALID,85.8707,VALID,1166.73,VALID,26.9557,VALID,303,VALID,1.56289,
2008-08-05, 12:09:05,VALID,1004.63,VALID,0,VALID,85.596,VALID,803.297,VALID,27.0162,VALID,354,VALID,1.5582,